Tracking 19846 objects as of 18-Sep-2019
HD Live streaming from Space Station
objects crossing your sky now

SUCHAI

Track SUCHAI now!
10-day predictions
SUCHAI is classified as:


NORAD ID: 42788
Int'l Code: 2017-036Z
Perigee: 496.9 km
Apogee: 510.5 km
Inclination: 97.3 °
Period: 94.5 minutes
Semi major axis: 6874 km
RCS: Unknown
Launch date: June 23, 2017
Source: Chile (CHLE)
Launch site: SRIHARIKOTA (SRI)

Uplink (MHz):
Downlink (MHz): 437.225
Beacon (MHz): 437.229
Mode: CW
Call sign: SUCHAI
Status: Inactive

aabbcc
Your satellite tracking list
Your tracking list is empty




NASA's NSSDC Master Catalog

Two Line Element Set (TLE):
1 42788U 17036Z   19261.15853657  .00000889  00000-0  40669-4 0  9999
2 42788  97.3432 317.3299 0009881 267.3815  92.6291 15.23068501124277
Source of the keplerian elements: AMSAT